GW1370 Weather Reports


Display with metric or nautical units.
time (UTC)temp
F
wind
direction
speed
MPH
gust
MPH
rain 1hr
in
rain 24hr
in
rain mn
in
humidity
%
barometer
mb
20260510101545 54 40 8.0 23.0 0.00 0.00 0.00 71 1016.4
20260510100048 54 53 10.0 18.0 0.00 0.00 0.00 71 1016.5
20260510094548 54 29 12.0 22.0 0.00 0.00 0.00 71 1016.4
20260510093102 54 29 14.0 24.0 0.00 0.00 0.00 70 1016.4
20260510091547 54 50 8.0 21.0 0.00 0.00 0.00 72 1016.5
20260510090048 53 36 10.0 19.0 0.00 0.00 0.00 73 1016.5
20260510084544 53 43 11.0 22.0 0.00 0.00 0.00 73 1016.7
20260510083043 53 55 12.0 23.0 0.00 0.00 0.00 75 1016.8
20260510081549 53 6 11.0 19.0 0.00 0.00 0.00 77 1016.8
20260510080042 52 48 11.0 20.0 0.00 0.00 0.00 78 1016.9
20260510074549 52 30 12.0 21.0 0.00 0.00 0.00 79 1017.0
20260510073050 51 55 12.0 23.0 0.00 0.00 0.00 80 1017.0
20260510071552 51 77 11.0 20.0 0.00 0.00 0.00 80 1017.0
20260510070044 51 52 9.0 14.0 0.00 0.00 0.00 82 1016.9
20260510064539 50 58 10.0 18.0 0.00 0.00 0.00 82 1016.9
20260510063039 50 30 9.0 18.0 0.00 0.00 0.00 83 1016.8
20260510061552 50 29 11.0 17.0 0.00 0.00 0.00 85 1016.8
20260510060048 49 39 7.0 13.0 0.00 0.00 0.00 86 1016.8
20260510054546 49 32 4.0 14.0 0.00 0.00 0.00 87 1016.7
20260510053058 49 21 6.0 16.0 0.00 0.00 0.00 88 1016.6
20260510051548 48 49 7.0 14.0 0.00 0.00 0.00 88 1016.5
20260510050043 48 40 6.0 14.0 0.00 0.00 0.00 89 1016.6
20260510044551 48 27 4.0 13.0 0.00 0.00 0.00 89 1016.8
20260510043053 48 15 3.0 11.0 0.00 0.00 0.00 89 1016.8
20260510041546 48 335 4.0 9.0 0.00 0.00 0.00 89 1016.8
20260510040046 48 23 4.0 11.0 0.00 0.00 0.00 90 1016.7
20260510034547 48 33 4.0 10.0 0.00 0.00 0.00 90 1017.0
20260510033100 48 42 3.0 10.0 0.00 0.00 0.00 90 1016.9
20260510031552 48 330 3.0 10.0 0.00 0.00 0.00 90 1017.2
20260510030051 47 24 2.0 10.0 0.00 0.00 0.00 90 1017.1
20260510024548 47 21 5.0 12.0 0.00 0.00 0.00 89 1016.8
20260510023048 47 359 5.0 11.0 0.00 0.00 0.00 89 1017.1
20260510021550 47 30 3.0 11.0 0.00 0.00 0.00 89 1017.0
20260510020050 47 21 3.0 9.0 0.00 0.00 0.00 89 1017.2
20260510014550 47 13 4.0 9.0 0.00 0.00 0.00 88 1017.1
20260510013050 48 33 5.0 10.0 0.00 0.00 0.00 88 1017.1
20260510011552 48 41 5.0 10.0 0.00 0.00 0.00 87 1017.1
20260510010043 48 46 4.0 10.0 0.00 0.00 0.00 86 1017.2
20260510004551 49 24 4.0 10.0 0.00 0.00 0.00 85 1017.1
20260510003046 49 347 4.0 8.0 0.00 0.00 0.00 85 1017.4
20260510001549 49 15 4.0 7.0 0.00 0.00 0.00 84 1017.4
20260510000057 50 6 3.0 9.0 0.00 0.00 0.00 83 1017.3
20260509234545 50 37 5.0 9.0 0.00 0.00 0.00 82 1017.2
20260509233041 51 13 4.0 11.0 0.00 0.00 0.00 81 1017.4
20260509231548 51 16 5.0 9.0 0.00 0.00 0.00 80 1017.4
20260509230054 51 29 5.0 10.0 0.00 0.00 0.00 80 1017.4
20260509224545 52 37 5.0 10.0 0.00 0.00 0.00 78 1017.3
20260509223044 52 18 3.0 8.0 0.00 0.00 0.00 76 1017.4
20260509221546 52 23 4.0 10.0 0.00 0.00 0.00 76 1017.4
20260509220052 53 34 5.0 11.0 0.00 0.00 0.00 75 1017.4
20260509214559 53 31 5.0 10.0 0.00 0.00 0.00 73 1017.2
20260509213048 53 15 3.0 7.0 0.00 0.00 0.00 71 1017.3
20260509211547 54 53 6.0 12.0 0.00 0.00 0.00 70 1017.1
20260509210045 54 18 6.0 12.0 0.00 0.00 0.00 71 1016.8
20260509204546 55 52 5.0 12.0 0.00 0.00 0.00 71 1017.1
20260509203053 55 57 7.0 14.0 0.00 0.00 0.00 70 1016.9
20260509201541 55 72 9.0 17.0 0.00 0.00 0.00 69 1016.7
20260509200041 56 50 11.0 14.0 0.00 0.00 0.00 68 1016.8
20260509194548 56 54 9.0 15.0 0.00 0.00 0.00 66 1016.5
20260509193046 56 52 10.0 16.0 0.00 0.00 0.00 64 1016.4
20260509191557 57 51 9.0 15.0 0.00 0.00 0.00 64 1016.5
20260509190051 57 63 9.0 14.0 0.00 0.00 0.00 63 1016.6
20260509184555 57 70 10.0 17.0 0.00 0.00 0.00 59 1016.4
20260509183057 58 79 12.0 18.0 0.00 0.00 0.00 57 1016.6
20260509181549 58 47 10.0 18.0 0.00 0.00 0.00 55 1016.4
20260509180049 59 75 13.0 19.0 0.00 0.00 0.00 53 1016.2
20260509174601 59 81 14.0 20.0 0.00 0.00 0.00 49 1016.2
20260509173102 59 60 12.0 19.0 0.00 0.00 0.00 51 1016.2
20260509171547 60 80 12.0 21.0 0.00 0.00 0.00 51 1016.1
20260509170048 59 82 15.0 23.0 0.00 0.00 0.00 49 1016.2
20260509164553 60 87 13.0 22.0 0.00 0.00 0.00 49 1016.4
20260509163048 60 81 16.0 21.0 0.00 0.00 0.00 50 1016.6
20260509161552 60 79 14.0 19.0 0.00 0.00 0.00 52 1016.8
20260509160057 60 63 14.0 23.0 0.00 0.00 0.00 52 1016.8
20260509154552 60 78 16.0 21.0 0.00 0.00 0.00 51 1016.7
20260509153053 61 75 15.0 20.0 0.00 0.00 0.00 54 1016.8
20260509151547 60 70 19.0 26.0 0.00 0.00 0.00 52 1016.8
20260509150041 61 76 17.0 23.0 0.00 0.00 0.00 51 1016.6
20260509144547 61 74 21.0 27.0 0.00 0.00 0.00 52 1016.2
20260509143045 61 65 18.0 23.0 0.00 0.00 0.00 52 1016.3
20260509141544 62 58 15.0 26.0 0.00 0.00 0.00 51 1016.5
20260509140048 62 82 14.0 23.0 0.00 0.00 0.00 53 1016.5
20260509134544 62 75 17.0 23.0 0.00 0.00 0.00 57 1016.4
20260509133046 61 76 18.0 25.0 0.00 0.00 0.00 54 1016.4
20260509131543 62 68 12.0 21.0 0.00 0.00 0.00 56 1016.5
20260509130053 62 89 13.0 21.0 0.00 0.00 0.00 56 1016.7
20260509124554 62 82 13.0 22.0 0.00 0.00 0.00 54 1016.8
20260509123051 62 63 13.0 20.0 0.00 0.00 0.00 53 1017.1
20260509121546 62 55 12.0 20.0 0.00 0.00 0.00 55 1017.2
20260509120049 62 72 12.0 24.0 0.00 0.00 0.00 55 1017.3
20260509114559 62 80 16.0 25.0 0.00 0.00 0.00 55 1017.3
20260509113056 62 68 14.0 20.0 0.00 0.00 0.00 53 1017.3
20260509111548 62 100 12.0 17.0 0.00 0.00 0.00 60 1017.3
20260509110049 62 89 11.0 19.0 0.00 0.00 0.00 54 1017.5
20260509104547 62 82 14.0 20.0 0.00 0.00 0.00 56 1017.6
20260509103059 62 87 14.0 20.0 0.00 0.00 0.00 55 1017.6